Time,TemperatureF,DewpointF,PressureIn,WindDirection,WindDirectionDegrees,WindSpeedMPH,WindSpeedGustMPH,Humidity,HourlyPrecipIn,Conditions,Clouds,dailyrainin,SoftwareType,DateUTC
2013-02-20 00:02:00,11.0,7.0,29.75,WNW,295,9.0,17.0,81,-99.99,,,-99.99,,2013-02-20 05:02:00,
2013-02-20 00:12:00,11.0,7.0,29.75,WNW,295,9.0,17.0,81,-99.99,,,-99.99,,2013-02-20 05:12:00,
2013-02-20 00:22:00,11.0,6.0,29.75,WNW,290,10.0,19.0,80,-99.99,,,-99.99,,2013-02-20 05:22:00,
2013-02-20 00:32:00,11.0,6.0,29.76,WNW,290,7.0,21.0,80,-99.99,,,-99.99,,2013-02-20 05:32:00,
2013-02-20 00:43:00,11.0,6.0,29.76,WNW,290,7.0,21.0,80,-99.99,,,-99.99,,2013-02-20 05:43:00,
2013-02-20 00:52:00,11.0,6.0,29.77,WNW,285,12.0,19.0,81,-99.99,,,-99.99,,2013-02-20 05:52:00,
2013-02-20 01:02:00,11.0,6.0,29.77,WNW,285,12.0,19.0,81,-99.99,,,-99.99,,2013-02-20 06:02:00,
2013-02-20 01:22:00,11.0,6.0,29.78,West,280,11.0,20.0,80,-99.99,,,-99.99,,2013-02-20 06:22:00,
2013-02-20 01:32:00,11.0,6.0,29.79,WNW,295,11.0,17.0,80,-99.99,,,-99.99,,2013-02-20 06:32:00,
2013-02-20 01:42:00,11.0,6.0,29.79,WNW,295,11.0,17.0,80,-99.99,,,-99.99,,2013-02-20 06:42:00,
2013-02-20 01:52:00,11.0,6.0,29.79,WNW,290,9.0,19.0,81,-99.99,,,-99.99,,2013-02-20 06:52:00,
2013-02-20 02:02:00,10.0,5.0,29.80,WNW,290,11.0,17.0,80,-99.99,,,-99.99,,2013-02-20 07:02:00,
2013-02-20 02:11:00,10.0,5.0,29.80,WNW,290,11.0,17.0,80,-99.99,,,-99.99,,2013-02-20 07:11:00,
2013-02-20 02:21:00,10.0,5.0,29.81,NW,305,11.0,19.0,80,-99.99,,,-99.99,,2013-02-20 07:21:00,
2013-02-20 02:32:00,10.0,5.0,29.81,WNW,300,10.0,18.0,80,-99.99,,,-99.99,,2013-02-20 07:32:00,
2013-02-20 02:42:00,10.0,5.0,29.81,WNW,300,10.0,18.0,80,-99.99,,,-99.99,,2013-02-20 07:42:00,
2013-02-20 02:52:00,10.0,5.0,29.83,WNW,290,11.0,24.0,78,-99.99,,,-99.99,,2013-02-20 07:52:00,
2013-02-20 03:05:00,10.0,4.0,29.84,WNW,290,10.0,16.0,78,-99.99,,,-99.99,,2013-02-20 08:05:00,
2013-02-20 03:11:00,10.0,4.0,29.84,WNW,290,10.0,16.0,78,-99.99,,,-99.99,,2013-02-20 08:11:00,
2013-02-20 03:22:00,10.0,4.0,29.85,WNW,295,11.0,19.0,78,-99.99,,,-99.99,,2013-02-20 08:22:00,
2013-02-20 03:32:00,10.0,4.0,29.85,WNW,295,11.0,19.0,78,-99.99,,,-99.99,,2013-02-20 08:32:00,
2013-02-20 03:52:00,9.0,4.0,29.85,WNW,290,9.0,21.0,78,-99.99,,,-99.99,,2013-02-20 08:52:00,
2013-02-20 04:02:00,9.0,4.0,29.86,WNW,300,10.0,20.0,79,-99.99,,,-99.99,,2013-02-20 09:02:00,
2013-02-20 04:11:00,9.0,4.0,29.86,WNW,300,10.0,20.0,79,-99.99,,,-99.99,,2013-02-20 09:11:00,
2013-02-20 04:21:00,9.0,4.0,29.87,WNW,295,10.0,21.0,78,-99.99,,,-99.99,,2013-02-20 09:21:00,
2013-02-20 04:32:00,9.0,4.0,29.88,WNW,290,7.0,16.0,79,-99.99,,,-99.99,,2013-02-20 09:32:00,
2013-02-20 04:42:00,9.0,4.0,29.88,WNW,290,7.0,16.0,79,-99.99,,,-99.99,,2013-02-20 09:42:00,
2013-02-20 04:51:00,9.0,4.0,29.89,WNW,295,8.0,17.0,79,-99.99,,,-99.99,,2013-02-20 09:51:00,
2013-02-20 05:01:00,9.0,4.0,29.89,WNW,295,9.0,14.0,79,-99.99,,,-99.99,,2013-02-20 10:01:00,
2013-02-20 05:12:00,9.0,4.0,29.89,WNW,295,9.0,14.0,79,-99.99,,,-99.99,,2013-02-20 10:12:00,
2013-02-20 05:22:00,8.0,4.0,29.89,WNW,295,11.0,17.0,80,-99.99,,,-99.99,,2013-02-20 10:22:00,
2013-02-20 05:32:00,8.0,3.0,29.90,WNW,300,11.0,24.0,77,-99.99,,,-99.99,,2013-02-20 10:32:00,
2013-02-20 05:42:00,8.0,3.0,29.90,WNW,300,11.0,24.0,77,-99.99,,,-99.99,,2013-02-20 10:42:00,
2013-02-20 05:51:00,8.0,2.0,29.91,WNW,295,9.0,23.0,77,-99.99,,,-99.99,,2013-02-20 10:51:00,
2013-02-20 06:02:00,8.0,3.0,29.91,WNW,285,8.0,19.0,78,-99.99,,,-99.99,,2013-02-20 11:02:00,
2013-02-20 06:11:00,8.0,3.0,29.91,WNW,285,8.0,19.0,78,-99.99,,,-99.99,,2013-02-20 11:11:00,
2013-02-20 06:22:00,8.0,3.0,29.92,West,280,10.0,19.0,78,-99.99,,,-99.99,,2013-02-20 11:22:00,
2013-02-20 06:32:00,8.0,2.0,29.94,NW,305,14.0,21.0,75,-99.99,,,-99.99,,2013-02-20 11:32:00,
2013-02-20 06:42:00,8.0,2.0,29.94,NW,305,14.0,21.0,75,-99.99,,,-99.99,,2013-02-20 11:42:00,
2013-02-20 06:52:00,8.0,2.0,29.94,WNW,295,7.0,14.0,75,-99.99,,,-99.99,,2013-02-20 11:52:00,
2013-02-20 07:02:00,8.0,2.0,29.95,NW,305,9.0,18.0,75,-99.99,,,-99.99,,2013-02-20 12:02:00,
2013-02-20 07:12:00,8.0,2.0,29.95,NW,305,9.0,18.0,75,-99.99,,,-99.99,,2013-02-20 12:12:00,
2013-02-20 07:22:00,8.0,2.0,29.96,WNW,295,7.0,21.0,75,-99.99,,,-99.99,,2013-02-20 12:22:00,
2013-02-20 07:32:00,8.0,1.0,29.97,WNW,295,11.0,21.0,74,-99.99,,,-99.99,,2013-02-20 12:32:00,
2013-02-20 07:42:00,8.0,1.0,29.97,NW,305,9.0,17.0,74,-99.99,,,-99.99,,2013-02-20 12:42:00,
2013-02-20 07:50:00,8.0,2.0,29.99,WNW,295,9.0,14.0,76,-99.99,,,-99.99,,2013-02-20 12:50:00,
2013-02-20 07:52:00,8.0,1.0,29.97,NW,305,9.0,17.0,74,-99.99,,,-99.99,,2013-02-20 12:52:00,
2013-02-20 08:01:00,8.0,2.0,29.99,WNW,295,11.0,18.0,75,-99.99,,,-99.99,,2013-02-20 13:01:00,
2013-02-20 08:12:00,8.0,2.0,29.99,WNW,295,11.0,18.0,75,-99.99,,,-99.99,,2013-02-20 13:12:00,
2013-02-20 08:22:00,8.0,2.0,29.99,WNW,300,11.0,19.0,75,-99.99,,,-99.99,,2013-02-20 13:22:00,
2013-02-20 08:32:00,8.0,2.0,29.99,WNW,295,9.0,14.0,76,-99.99,,,-99.99,,2013-02-20 13:32:00,
2013-02-20 08:42:00,8.0,2.0,29.99,WNW,295,9.0,14.0,76,-99.99,,,-99.99,,2013-02-20 13:42:00,
2013-02-20 09:01:00,8.0,2.0,30.01,WNW,290,5.0,16.0,76,-99.99,,,-99.99,,2013-02-20 14:01:00,
2013-02-20 09:11:00,8.0,2.0,30.01,WNW,290,5.0,16.0,76,-99.99,,,-99.99,,2013-02-20 14:11:00,
2013-02-20 09:22:00,8.0,2.0,30.02,NW,315,6.0,17.0,76,-99.99,,,-99.99,,2013-02-20 14:22:00,
2013-02-20 09:32:00,8.0,2.0,30.02,WNW,295,8.0,14.0,76,-99.99,,,-99.99,,2013-02-20 14:32:00,
2013-02-20 09:42:00,8.0,2.0,30.02,WNW,295,8.0,14.0,76,-99.99,,,-99.99,,2013-02-20 14:42:00,
2013-02-20 09:52:00,8.0,2.0,30.03,NNW,330,6.0,21.0,76,-99.99,,,-99.99,,2013-02-20 14:52:00,
2013-02-20 10:02:00,8.0,2.0,30.02,WNW,285,10.0,22.0,75,-99.99,,,-99.99,,2013-02-20 15:02:00,
2013-02-20 10:12:00,8.0,2.0,30.02,WNW,285,10.0,22.0,75,-99.99,,,-99.99,,2013-02-20 15:12:00,
2013-02-20 10:22:00,9.0,2.0,30.04,WNW,285,6.0,21.0,74,-99.99,,,-99.99,,2013-02-20 15:22:00,
2013-02-20 10:32:00,9.0,2.0,30.04,West,275,8.0,15.0,73,-99.99,,,-99.99,,2013-02-20 15:32:00,
2013-02-20 10:42:00,9.0,2.0,30.04,West,275,8.0,15.0,73,-99.99,,,-99.99,,2013-02-20 15:42:00,
2013-02-20 10:52:00,9.0,2.0,30.04,NW,310,7.0,20.0,71,-99.99,,,-99.99,,2013-02-20 15:52:00,
2013-02-20 11:01:00,9.0,2.0,30.05,WNW,290,9.0,20.0,71,-99.99,,,-99.99,,2013-02-20 16:01:00,
2013-02-20 11:12:00,9.0,2.0,30.05,WNW,290,9.0,20.0,71,-99.99,,,-99.99,,2013-02-20 16:12:00,
2013-02-20 11:22:00,9.0,2.0,30.05,North,0,8.0,18.0,71,-99.99,,,-99.99,,2013-02-20 16:22:00,
2013-02-20 11:32:00,9.0,3.0,30.06,NW,320,11.0,20.0,74,-99.99,,,-99.99,,2013-02-20 16:32:00,
2013-02-20 11:42:00,9.0,3.0,30.06,NW,320,11.0,20.0,74,-99.99,,,-99.99,,2013-02-20 16:42:00,
2013-02-20 11:52:00,10.0,3.0,30.06,WNW,300,11.0,21.0,72,-99.99,,,-99.99,,2013-02-20 16:52:00,
2013-02-20 12:01:00,10.0,3.0,30.06,WNW,300,11.0,21.0,72,-99.99,,,-99.99,,2013-02-20 17:01:00,
2013-02-20 12:21:00,11.0,3.0,30.06,NNW,330,8.0,19.0,70,-99.99,,,-99.99,,2013-02-20 17:21:00,
2013-02-20 12:32:00,11.0,4.0,30.05,NW,310,9.0,19.0,73,-99.99,,,-99.99,,2013-02-20 17:32:00,
2013-02-20 12:42:00,11.0,4.0,30.05,NW,310,9.0,19.0,73,-99.99,,,-99.99,,2013-02-20 17:42:00,
2013-02-20 12:52:00,10.0,3.0,30.06,WNW,295,14.0,24.0,72,-99.99,,,-99.99,,2013-02-20 17:52:00,
2013-02-20 13:02:00,10.0,3.0,30.06,WNW,295,11.0,21.0,70,-99.99,,,-99.99,,2013-02-20 18:02:00,
2013-02-20 13:11:00,10.0,3.0,30.06,WNW,295,11.0,21.0,70,-99.99,,,-99.99,,2013-02-20 18:11:00,
2013-02-20 13:22:00,11.0,2.0,30.06,NW,305,13.0,23.0,69,-99.99,,,-99.99,,2013-02-20 18:22:00,
2013-02-20 13:32:00,11.0,3.0,30.06,NW,315,11.0,21.0,69,-99.99,,,-99.99,,2013-02-20 18:32:00,
2013-02-20 13:42:00,11.0,3.0,30.06,NW,315,11.0,21.0,69,-99.99,,,-99.99,,2013-02-20 18:42:00,
2013-02-20 13:52:00,11.0,3.0,30.06,West,275,10.0,18.0,69,-99.99,,,-99.99,,2013-02-20 18:52:00,
2013-02-20 14:01:00,11.0,3.0,30.06,West,275,10.0,18.0,69,-99.99,,,-99.99,,2013-02-20 19:01:00,
2013-02-20 14:21:00,12.0,4.0,30.06,WNW,290,9.0,24.0,69,-99.99,,,-99.99,,2013-02-20 19:21:00,
2013-02-20 14:32:00,12.0,4.0,30.06,NW,310,9.0,21.0,70,-99.99,,,-99.99,,2013-02-20 19:32:00,
2013-02-20 14:41:00,12.0,4.0,30.06,NW,310,9.0,21.0,70,-99.99,,,-99.99,,2013-02-20 19:41:00,
2013-02-20 14:50:00,11.0,4.0,30.07,NW,310,14.0,23.0,72,-99.99,,,-99.99,,2013-02-20 19:50:00,
2013-02-20 14:52:00,12.0,4.0,30.06,NW,305,14.0,21.0,70,-99.99,,,-99.99,,2013-02-20 19:52:00,
2013-02-20 15:01:00,12.0,4.0,30.06,NW,305,14.0,21.0,70,-99.99,,,-99.99,,2013-02-20 20:01:00,
2013-02-20 15:21:00,12.0,4.0,30.06,WNW,285,11.0,25.0,70,-99.99,,,-99.99,,2013-02-20 20:21:00,
2013-02-20 15:31:00,11.0,4.0,30.07,NW,310,14.0,23.0,72,-99.99,,,-99.99,,2013-02-20 20:31:00,
2013-02-20 15:41:00,11.0,4.0,30.07,NW,310,14.0,23.0,72,-99.99,,,-99.99,,2013-02-20 20:41:00,
2013-02-20 16:50:00,12.0,6.0,30.11,NW,315,14.0,27.0,75,-99.99,,,-99.99,,2013-02-20 21:50:00,
2013-02-20 16:52:00,12.0,6.0,30.10,NW,305,11.0,21.0,74,-99.99,,,-99.99,,2013-02-20 21:52:00,
2013-02-20 17:02:00,12.0,6.0,30.10,NW,305,11.0,21.0,74,-99.99,,,-99.99,,2013-02-20 22:02:00,
2013-02-20 17:11:00,12.0,5.0,30.11,WNW,295,12.0,20.0,74,-99.99,,,-99.99,,2013-02-20 22:11:00,
2013-02-20 17:21:00,12.0,5.0,30.11,WNW,295,12.0,20.0,74,-99.99,,,-99.99,,2013-02-20 22:21:00,
2013-02-20 17:31:00,12.0,5.0,30.11,WNW,295,12.0,20.0,74,-99.99,,,-99.99,,2013-02-20 22:31:00,
2013-02-20 18:01:00,13.0,7.0,30.12,NW,315,6.0,19.0,76,-99.99,,,-99.99,,2013-02-20 23:01:00,
2013-02-20 18:12:00,13.0,7.0,30.13,WNW,300,7.0,19.0,77,-99.99,,,-99.99,,2013-02-20 23:12:00,
2013-02-20 18:22:00,13.0,7.0,30.13,WNW,300,7.0,19.0,77,-99.99,,,-99.99,,2013-02-20 23:22:00,
2013-02-20 18:32:00,13.0,7.0,30.14,NW,305,7.0,14.0,78,-99.99,,,-99.99,,2013-02-20 23:32:00,
2013-02-20 18:42:00,13.0,7.0,30.14,NW,305,7.0,14.0,78,-99.99,,,-99.99,,2013-02-20 23:42:00,
2013-02-20 18:52:00,13.0,8.0,30.15,WNW,290,11.0,18.0,79,-99.99,,,-99.99,,2013-02-20 23:52:00,
2013-02-20 19:03:00,14.0,9.0,30.15,WNW,285,8.0,18.0,80,-99.99,,,-99.99,,2013-02-21 00:03:00,
2013-02-20 19:11:00,14.0,9.0,30.17,WNW,295,9.0,16.0,80,-99.99,,,-99.99,,2013-02-21 00:11:00,
2013-02-20 19:22:00,14.0,9.0,30.17,WNW,295,9.0,16.0,80,-99.99,,,-99.99,,2013-02-21 00:22:00,
2013-02-20 19:32:00,14.0,9.0,30.17,WNW,300,9.0,16.0,81,-99.99,,,-99.99,,2013-02-21 00:32:00,
2013-02-20 19:42:00,14.0,9.0,30.17,WNW,300,9.0,16.0,81,-99.99,,,-99.99,,2013-02-21 00:42:00,
2013-02-20 19:52:00,14.0,9.0,30.17,WNW,300,9.0,16.0,81,-99.99,,,-99.99,,2013-02-21 00:52:00,
2013-02-20 20:01:00,14.0,10.0,30.17,WNW,300,6.0,20.0,82,-99.99,,,-99.99,,2013-02-21 01:01:00,
2013-02-20 20:12:00,14.0,10.0,30.17,WNW,300,6.0,20.0,82,-99.99,,,-99.99,,2013-02-21 01:12:00,
2013-02-20 20:21:00,14.0,10.0,30.17,WNW,290,9.0,16.0,82,-99.99,,,-99.99,,2013-02-21 01:21:00,
2013-02-20 20:32:00,14.0,10.0,30.18,NNW,330,6.0,19.0,82,-99.99,,,-99.99,,2013-02-21 01:32:00,
2013-02-20 20:42:00,14.0,10.0,30.18,NNW,330,6.0,19.0,82,-99.99,,,-99.99,,2013-02-21 01:42:00,
2013-02-20 20:50:00,15.0,10.0,30.18,WNW,300,7.0,26.0,80,-99.99,,,-99.99,,2013-02-21 01:50:00,
2013-02-20 20:52:00,14.0,10.0,30.18,NNW,340,8.0,19.0,82,-99.99,,,-99.99,,2013-02-21 01:52:00,
2013-02-20 21:02:00,15.0,10.0,30.18,NW,315,9.0,16.0,82,-99.99,,,-99.99,,2013-02-21 02:02:00,
2013-02-20 21:11:00,15.0,10.0,30.18,NW,315,9.0,16.0,82,-99.99,,,-99.99,,2013-02-21 02:11:00,
2013-02-20 21:22:00,15.0,10.0,30.18,NW,315,8.0,20.0,81,-99.99,,,-99.99,,2013-02-21 02:22:00,
2013-02-20 21:32:00,15.0,10.0,30.18,WNW,300,7.0,26.0,80,-99.99,,,-99.99,,2013-02-21 02:32:00,
2013-02-20 21:42:00,15.0,10.0,30.18,WNW,300,7.0,26.0,80,-99.99,,,-99.99,,2013-02-21 02:42:00,
2013-02-20 22:02:00,15.0,10.0,30.19,NNW,335,6.0,20.0,80,-99.99,,,-99.99,,2013-02-21 03:02:00,
2013-02-20 22:12:00,15.0,10.0,30.19,NNW,335,6.0,20.0,80,-99.99,,,-99.99,,2013-02-21 03:12:00,
2013-02-20 22:21:00,15.0,10.0,30.19,NNW,340,10.0,17.0,81,-99.99,,,-99.99,,2013-02-21 03:21:00,
2013-02-20 22:32:00,14.0,9.0,30.19,NW,325,11.0,19.0,81,-99.99,,,-99.99,,2013-02-21 03:32:00,
2013-02-20 22:42:00,14.0,9.0,30.19,NW,325,11.0,19.0,81,-99.99,,,-99.99,,2013-02-21 03:42:00,
2013-02-20 22:51:00,14.0,10.0,30.20,North,0,5.0,17.0,82,-99.99,,,-99.99,,2013-02-21 03:51:00,
2013-02-20 23:01:00,14.0,10.0,30.20,WNW,285,11.0,19.0,82,-99.99,,,-99.99,,2013-02-21 04:01:00,
2013-02-20 23:11:00,14.0,10.0,30.20,WNW,285,11.0,19.0,82,-99.99,,,-99.99,,2013-02-21 04:11:00,
2013-02-20 23:22:00,14.0,10.0,30.20,NNW,335,6.0,20.0,82,-99.99,,,-99.99,,2013-02-21 04:22:00,
2013-02-20 23:32:00,14.0,9.0,30.21,NW,315,6.0,14.0,81,-99.99,,,-99.99,,2013-02-21 04:32:00,
2013-02-20 23:42:00,14.0,9.0,30.21,NW,315,6.0,14.0,81,-99.99,,,-99.99,,2013-02-21 04:42:00,
2013-02-20 23:52:00,14.0,9.0,30.21,North,5,9.0,14.0,81,-99.99,,,-99.99,,2013-02-21 04:52:00,